Fredericksburg, VA

6:08 AM EST on December 08, 2019 (GMT -0500)
Shannon

Weather History for KEZF - October, 2019

Change the Weather History Date:

Friday, October 25, 2019

  Actual Average (WUND) Record (WUND)
Temperature  
Mean Temperature 56 °F -  
Max Temperature 68 °F - - (-1)
Min Temperature 43 °F - - (-1)
Degree Days  
Heating Degree Days 10    
Growing Degree Days 6 (Base 50)    
Moisture  
Dew Point 50 °F    
Average Humidity 82    
Maximum Humidity 100    
Minimum Humidity 48    
Precipitation  
Precipitation 0.00 in - - ()
Sea Level Pressure  
Sea Level Pressure 30.25 in    
Wind  
Wind Speed 1 mph ()    
Max Wind Speed 9 mph    
Max Gust Speed -    
Visibility 10.0 miles    
Events      
Averages and records for this station are not official NWS values.
T = Trace of Precipitation, MM = Missing Value Source: Averaged Metar Reports

Daily Weather History Graph

Daily Weather History Graph

Search for Another Location

Airport or City:

Astronomy

Oct. 25, 2019 Rise Set
Actual Time 7:28 AM EDT 6:18 PM EDT
Civil Twilight 7:01 AM EDT 6:45 PM EDT
Nautical Twilight 6:30 AM EDT 7:16 PM EDT
Astronomical Twilight 5:59 AM EDT 7:47 PM EDT
Moon 4:12 AM EDT (10/25) 5:16 PM EDT (10/25)
Length of Visible Light 11h 44m
Length of Day
10h 50m
Waning Crescent, 9% of the Moon is Illuminated
Oct 25
Waning Crescent
Oct 27
New
Nov 4
First Quarter
Nov 12
Full
Nov 19
Last Quarter

Hourly Weather History & Observations

Time (EDT) Temp. Dew Point Humidity Pressure Visibility Wind Dir Wind Speed Gust Speed Precip Events Conditions
12:15 AM 45.7 °F 45.7 °F 100% 30.31 in 10.0 mi Calm Calm - N/A   Clear
12:35 AM 45.7 °F 45.7 °F 100% 30.30 in 10.0 mi Calm Calm - N/A   Clear
12:55 AM 45.9 °F 45.9 °F 100% 30.30 in 10.0 mi Calm Calm - N/A   Clear
1:15 AM 45.7 °F 45.7 °F 100% 30.30 in 10.0 mi Calm Calm - N/A   Clear
1:55 AM 44.6 °F 44.6 °F 100% 30.30 in 10.0 mi Calm Calm - N/A   Clear
2:15 AM 44.8 °F 44.8 °F 100% 30.30 in 10.0 mi Calm Calm - N/A   Clear
2:35 AM 45.0 °F 45.0 °F 100% 30.29 in 10.0 mi Calm Calm - N/A   Clear
2:55 AM 44.6 °F 44.6 °F 100% 30.28 in 10.0 mi Calm Calm - N/A   Clear
3:35 AM 44.6 °F 44.6 °F 100% 30.27 in 10.0 mi Calm Calm - N/A   Clear
4:15 AM 43.9 °F 43.9 °F 100% 30.28 in 10.0 mi Calm Calm - N/A   Clear
4:35 AM 44.4 °F 44.4 °F 100% 30.28 in 10.0 mi Calm Calm - N/A   Clear
4:55 AM 43.7 °F 43.7 °F 100% 30.27 in 10.0 mi Calm Calm - N/A   Clear
5:15 AM 44.1 °F 44.1 °F 100% 30.28 in 10.0 mi Calm Calm - N/A   Clear
5:55 AM 44.1 °F 44.1 °F 100% 30.29 in 10.0 mi Calm Calm - N/A   Clear
6:15 AM 43.9 °F 43.9 °F 100% 30.29 in 10.0 mi Calm Calm - N/A   Clear
6:35 AM 43.9 °F 43.9 °F 100% 30.29 in 10.0 mi Calm Calm - N/A   Clear
6:55 AM 43.7 °F 43.7 °F 100% 30.29 in 10.0 mi Calm Calm - N/A   Clear
7:15 AM 44.1 °F 44.1 °F 100% 30.29 in 10.0 mi Calm Calm - N/A   Clear
7:35 AM 44.2 °F 44.2 °F 100% 30.29 in 10.0 mi Calm Calm - N/A   Clear
7:55 AM 43.9 °F 43.9 °F 100% 30.30 in 10.0 mi Calm Calm - N/A   Clear
8:15 AM 45.0 °F 45.0 °F 100% 30.30 in 10.0 mi Calm Calm - N/A   Clear
8:35 AM 45.9 °F 45.9 °F 100% 30.30 in 10.0 mi Calm Calm - N/A   Clear
8:55 AM 48.2 °F 48.2 °F 100% 30.30 in 10.0 mi Calm Calm - N/A   Clear
9:15 AM 50.4 °F 50.4 °F 100% 30.30 in 10.0 mi Calm Calm - N/A   Clear
9:35 AM 52.0 °F 51.3 °F 97% 30.31 in 10.0 mi Calm Calm - N/A   Clear
9:55 AM 55.0 °F 52.7 °F 92% 30.30 in 10.0 mi Calm Calm - N/A   Clear
10:15 AM 58.6 °F 54.0 °F 84% 30.30 in 10.0 mi SE 3.5 mph - N/A   Clear
10:35 AM 61.0 °F 54.3 °F 79% 30.30 in 10.0 mi Calm Calm - N/A   Clear
10:55 AM 62.4 °F 54.7 °F 76% 30.29 in 10.0 mi Calm Calm - N/A   Clear
11:15 AM 64.4 °F 53.4 °F 67% 30.28 in 10.0 mi SSW 3.5 mph - N/A   Clear
11:35 AM 66.4 °F 51.4 °F 59% 30.28 in 10.0 mi SW 4.6 mph - N/A   Clear
11:55 AM 67.6 °F 50.9 °F 55% 30.27 in 10.0 mi Calm Calm - N/A   Clear
12:35 PM 66.4 °F 51.6 °F 59% 30.26 in 10.0 mi South 4.6 mph - N/A   Clear
12:55 PM 66.4 °F 52.7 °F 61% 30.25 in 10.0 mi SSW 4.6 mph - N/A   Clear
1:15 PM 66.7 °F 52.7 °F 61% 30.24 in 10.0 mi South 3.5 mph - N/A   Clear
1:35 PM 67.8 °F 50.0 °F 53% 30.23 in 10.0 mi SW 5.8 mph - N/A   Clear
1:55 PM 68.0 °F 49.3 °F 51% 30.22 in 10.0 mi SSW 6.9 mph - N/A   Clear
2:15 PM 68.7 °F 48.6 °F 49% 30.21 in 10.0 mi SSW 6.9 mph - N/A   Clear
2:35 PM 68.4 °F 49.6 °F 51% 30.20 in 10.0 mi South 4.6 mph - N/A   Clear
2:55 PM 68.9 °F 48.4 °F 48% 30.20 in 10.0 mi SSW 6.9 mph - N/A   Clear
3:15 PM 68.9 °F 48.2 °F 48% 30.19 in 10.0 mi SSW 9.2 mph - N/A   Clear
3:35 PM 68.4 °F 48.9 °F 50% 30.19 in 10.0 mi SSW 5.8 mph - N/A   Clear
3:55 PM 68.0 °F 48.9 °F 50% 30.19 in 10.0 mi SW 4.6 mph - N/A   Clear
4:15 PM 67.8 °F 48.9 °F 51% 30.17 in 10.0 mi SSW 4.6 mph - N/A   Clear
4:35 PM 67.1 °F 50.2 °F 55% 30.19 in 10.0 mi SSW 4.6 mph - N/A   Clear
4:55 PM 66.4 °F 50.4 °F 56% 30.19 in 10.0 mi SSW 3.5 mph - N/A   Clear
5:15 PM 66.0 °F 51.4 °F 59% 30.19 in 10.0 mi SSW 3.5 mph - N/A   Clear
5:55 PM 63.5 °F 52.7 °F 68% 30.19 in 10.0 mi Calm Calm - N/A   Clear
6:15 PM 62.8 °F 52.7 °F 70% 30.19 in 10.0 mi South 5.8 mph - N/A   Clear
6:35 PM 62.8 °F 52.5 °F 69% 30.19 in 10.0 mi South 3.5 mph - N/A   Clear
6:55 PM 61.7 °F 53.1 °F 73% 30.20 in 10.0 mi SSW 3.5 mph - N/A   Clear
7:15 PM 61.2 °F 52.7 °F 74% 30.20 in 10.0 mi Calm Calm - N/A   Clear
7:35 PM 60.6 °F 53.4 °F 77% 30.20 in 10.0 mi Calm Calm - N/A   Clear
7:55 PM 60.4 °F 53.8 °F 79% 30.20 in 10.0 mi Calm Calm - N/A   Clear
8:15 PM 59.0 °F 54.1 °F 84% 30.20 in 10.0 mi Calm Calm - N/A   Clear
8:35 PM 58.3 °F 54.1 °F 86% 30.21 in 10.0 mi Calm Calm - N/A   Clear
8:55 PM 58.1 °F 54.1 °F 87% 30.22 in 10.0 mi Calm Calm - N/A   Clear
9:15 PM 58.1 °F 54.3 °F 87% 30.22 in 10.0 mi Calm Calm - N/A   Clear
9:35 PM 58.3 °F 54.5 °F 87% 30.22 in 10.0 mi Calm Calm - N/A   Clear
9:55 PM 57.4 °F 54.7 °F 91% 30.22 in 10.0 mi Calm Calm - N/A   Clear
10:15 PM 57.0 °F 54.9 °F 92% 30.22 in 10.0 mi Calm Calm - N/A   Clear
10:35 PM 56.8 °F 55.0 °F 94% 30.22 in 10.0 mi Calm Calm - N/A   Clear
10:55 PM 56.8 °F 55.2 °F 94% 30.21 in 10.0 mi Calm Calm - N/A   Clear
11:15 PM 55.6 °F 54.5 °F 96% 30.21 in 10.0 mi Calm Calm - N/A   Clear
11:35 PM 55.8 °F 54.9 °F 97% 30.20 in 10.0 mi Calm Calm - N/A   Clear
11:55 PM 56.3 °F 55.4 °F 97% 30.20 in 10.0 mi Calm Calm - N/A   Clear